Weather History for Tallahassee, FL

Change the Weather History Date:

Wednesday, January 23, 2013

  Actual Average Record
Temperature  
Mean Temperature 48 °F 51 °F  
Max Temperature 66 °F 64 °F 80 °F (1929)
Min Temperature 29 °F 39 °F 20 °F (2011)
Degree Days  
Heating Degree Days 17    
Month to date heating degree days 155  
Since 1 July heating degree days 680  
Cooling Degree Days 0    
Month to date cooling degree days 30  
Year to date cooling degree days 30  
Moisture  
Dew Point 31 °F    
Average Humidity 58    
Maximum Humidity 85    
Minimum Humidity 30    
Precipitation  
Precipitation 0.00 in 0.15 in 2.24 in (1999)
Month to date precipitation 0.43 3.10  
Year to date precipitation 0.43 3.10  
Sea Level Pressure  
Sea Level Pressure 30.35 in    
Wind  
Wind Speed 2 mph (NW)    
Max Wind Speed 10 mph    
Max Gust Speed 14 mph    
Visibility 10 miles    
Events      
T = Trace of Precipitation, MM = Missing Value Source: NWS Daily Summary

Daily Weather History Graph

Daily Weather History Graph

Search for Another Location

Airport:

Trip Planner

Search our weather history database for the weather conditions in past years. The results will help you decide how hot, cold, wet, or windy it might be!

Date:

Astronomy

Jan. 23, 2013 Rise Set
Actual Time 7:32 AM EST 6:06 PM EST
Civil Twilight 7:07 AM EST 6:31 PM EST
Nautical Twilight 6:37 AM EST 7:01 PM EST
Astronomical Twilight 6:09 AM EST 7:29 PM EST
Moon 3:19 PM EST (1/23) 4:40 AM EST (1/23)
Length of Visible Light 11h 24m
Length of Day
10h 33m
Waxing Gibbous, 89% of the Moon is Illuminated
Jan 23
Waxing Gibbous
Jan 26
Full
Feb 3
Last Quarter
Feb 10
New
Feb 17
First Quarter

Hourly Weather History & Observations

Time (EST) Temp. Dew Point Humidity Pressure Visibility Wind Dir Wind Speed Gust Speed Precip Events Conditions
12:53 AM 32.0 °F 26.1 °F 79% 30.35 in 10.0 mi Calm Calm - N/A   Clear
1:53 AM 32.0 °F 27.0 °F 82% 30.35 in 10.0 mi Calm Calm - N/A   Clear
2:53 AM 32.0 °F 26.1 °F 79% 30.35 in 10.0 mi Calm Calm - N/A   Clear
3:53 AM 30.0 °F 25.0 °F 82% 30.35 in 10.0 mi Calm Calm - N/A   Clear
4:53 AM 30.0 °F 25.0 °F 82% 30.34 in 10.0 mi Calm Calm - N/A   Clear
5:53 AM 30.9 °F 26.1 °F 82% 30.35 in 10.0 mi Calm Calm - N/A   Clear
6:53 AM 30.0 °F 25.0 °F 82% 30.38 in 10.0 mi Calm Calm - N/A   Clear
7:53 AM 30.0 °F 25.0 °F 82% 30.40 in 10.0 mi Calm Calm - N/A   Clear
8:53 AM 42.1 °F 28.9 °F 60% 30.42 in 7.0 mi Calm Calm - N/A   Clear
9:53 AM 50.0 °F 27.0 °F 41% 30.43 in 10.0 mi Calm Calm - N/A   Clear
10:53 AM 55.0 °F 25.0 °F 31% 30.44 in 10.0 mi East 3.5 mph - N/A   Clear
11:53 AM 59.0 °F 28.0 °F 31% 30.42 in 10.0 mi North 8.1 mph - N/A   Clear
12:53 PM 60.1 °F 30.0 °F 32% 30.38 in 10.0 mi Variable 4.6 mph - N/A   Clear
1:53 PM 63.0 °F 32.0 °F 31% 30.34 in 10.0 mi NE 9.2 mph - N/A   Clear
2:53 PM 64.0 °F 34.0 °F 33% 30.32 in 10.0 mi Calm Calm - N/A   Clear
3:53 PM 66.0 °F 36.0 °F 33% 30.31 in 10.0 mi WNW 6.9 mph - N/A   Partly Cloudy
4:53 PM 64.0 °F 37.0 °F 37% 30.31 in 10.0 mi WNW 3.5 mph - N/A   Partly Cloudy
5:53 PM 61.0 °F 37.9 °F 42% 30.31 in 10.0 mi SW 4.6 mph - N/A   Scattered Clouds
6:53 PM 54.0 °F 39.0 °F 57% 30.31 in 10.0 mi Calm Calm - N/A   Clear
7:53 PM 51.1 °F 39.0 °F 63% 30.32 in 10.0 mi WSW 3.5 mph - N/A   Partly Cloudy
8:53 PM 50.0 °F 39.0 °F 66% 30.33 in 10.0 mi Calm Calm - N/A   Partly Cloudy
9:53 PM 46.0 °F 37.9 °F 73% 30.32 in 10.0 mi Calm Calm - N/A   Clear
10:53 PM 46.9 °F 37.9 °F 71% 30.33 in 7.0 mi Calm Calm - N/A   Clear
11:53 PM 42.1 °F 36.0 °F 79% 30.32 in 10.0 mi Calm Calm - N/A   Clear